Temp
3 4 4 5 6 7 10 12 14 18 19 17 17 19 18 17 17 17 17 17 17 17
2 2 3 3 4 5 7 9 11 14 18 17 17 17 17 17 17 16 16 17 17 17
1 1 2 3 4 5 6 7 9 12 17 17 16 16 16 17 17 17 16 16 16 17
0 1 2 3 3 5 7 8 8 12 16 17 16 16 16 16 17 17 16 16 16 16
-1 -0 1 2 3 4 6 11 10 12 16 17 17 17 16 16 17 17 17 16 16 16
-1 -1 -0 1 1 2 5 11 15 15 17 17 17 18 16 16 16 16 16 16 16 15
-2 -2 -1 -0 -0 2 1 4 9 13 16 17 17 16 15 16 16 16 16 15 15 15
-2 -2 -2 -2 -1 -0 0 1 2 6 7 10 12 13 15 15 15 15 14 14 14 13
-2 -3 -3 -3 -3 -2 -1 -2 -1 0 1 1 3 9 14 15 15 12 13 11 8 8
-2 -3 -3 -4 -4 -4 -3 -2 -3 -2 -1 -1 -0 2 8 8 9 7 6 6 6 5
-2 -2 -3 -3 -4 -4 -4 -4 -4 -4 -3 -2 -1 -0 -0 -1 1 1 1 2 1 2
-3 -3 -2 -2 -3 -3 -4 -4 -5 -5 -5 -4 -4 -1 1 -0 -3 -3 -3 -2 -1 -1
-4 -3 -3 -3 -3 -3 -3 -4 -4 -4 -4 -5 -5 -4 -3 -1 -3 -4 -4 -4 -4 -4
-4 -4 -4 -4 -4 -4 -4 -4 -4 -5 -5 -5 -4 -5 -5 -5 -5 -5 -5 -5 -5 -4
Height
728 724 719 714 710 705 700 694 691 688 687 679 686 694 704 709 709 712 717 720 723 726
723 718 712 707 702 696 691 686 684 683 680 678 682 686 691 698 701 704 708 715 719 720
718 712 704 698 691 685 679 676 674 673 673 673 673 678 681 687 692 696 702 708 713 715
713 704 697 690 681 674 667 661 660 660 662 662 665 669 672 677 681 687 695 700 704 706
707 697 689 680 671 664 654 643 644 647 649 651 652 657 662 668 674 679 687 691 695 698
703 693 684 674 667 658 649 640 634 637 638 640 643 650 655 660 666 672 677 681 683 690
703 695 683 675 668 655 648 634 626 628 629 632 636 641 649 654 661 666 671 677 684 688
705 696 685 678 668 659 649 642 640 618 620 630 632 638 643 650 655 661 666 672 681 687
707 700 693 684 673 665 655 645 641 633 638 639 637 638 641 647 652 654 659 667 678 684
716 709 701 693 682 674 668 659 659 653 651 651 651 645 641 647 651 657 663 669 677 681
724 717 710 702 695 688 680 674 678 671 667 663 665 662 653 660 658 664 669 673 680 679
731 724 718 713 707 703 697 692 689 686 680 677 683 674 675 668 681 669 677 681 686 688
740 734 730 724 720 717 712 708 706 701 697 697 698 693 688 680 701 681 690 688 700 702
750 745 740 736 732 728 725 722 718 717 716 717 717 712 706 701 704 701 705 711 712 717
Wind_Speed
25 25 27 28 29 31 34 35 34 31 38 38 37 42 37 36 35 37 37 34 31 29
29 28 29 31 32 34 36 39 39 38 32 35 37 42 40 39 37 33 37 31 32 27
31 30 30 31 34 34 38 40 40 40 34 37 36 38 39 38 38 36 31 35 29 32
29 29 28 29 30 33 37 44 42 41 38 38 36 37 36 36 34 36 33 31 32 29
28 28 26 26 28 30 36 32 40 39 39 40 41 38 37 36 32 34 33 27 28 30
29 31 27 26 28 26 25 22 16 32 35 37 36 35 34 36 33 33 32 33 33 30
30 31 28 25 26 24 26 20 14 15 30 35 34 30 33 30 29 29 30 29 28 26
29 30 31 28 30 31 34 31 22 23 21 9 7 12 24 30 28 29 24 25 25 23
32 32 32 32 34 32 39 43 40 43 36 33 28 7 25 29 24 30 34 29 25 21
29 31 34 34 36 38 35 43 41 41 40 40 40 33 25 26 31 29 25 27 23 19
31 30 33 36 37 37 40 42 35 42 42 43 42 40 39 35 32 33 29 24 17 19
32 34 34 35 35 37 39 41 43 42 46 47 45 42 38 41 30 46 41 35 24 19
34 34 34 35 33 33 35 37 37 43 49 47 45 45 41 46 30 37 36 40 36 31
32 33 33 32 36 33 33 34 36 38 40 38 41 45 44 43 39 35 33 32 34 31
Wind_Direction
305 296 287 282 278 274 273 273 277 275 234 225 209 219 226 225 212 208 211 206 194 194
305 296 288 282 275 270 269 268 270 272 249 225 213 218 215 218 222 207 203 206 201 197
303 296 290 286 279 270 266 262 260 258 255 228 214 214 209 215 218 208 207 207 214 208
309 305 300 293 288 281 271 260 250 249 249 225 217 211 210 213 210 212 209 204 202 217
320 323 315 315 312 303 297 254 240 239 239 221 213 212 208 209 210 213 210 197 194 194
339 338 325 337 330 332 323 290 271 242 234 220 215 214 206 204 201 200 197 191 191 192
351 345 346 351 357 11 356 7 345 264 237 221 211 202 202 203 199 194 195 195 192 187
0 2 9 5 15 28 27 28 35 63 58 70 167 187 198 200 199 188 165 162 168 166
15 15 15 17 23 25 36 32 35 43 43 39 32 353 195 199 181 151 157 142 137 138
21 23 26 27 32 31 33 44 34 39 43 42 39 54 93 108 125 118 117 132 144 136
24 29 32 36 37 38 39 43 39 41 43 44 43 52 68 63 91 88 89 101 108 117
25 30 31 35 37 39 44 44 45 45 44 44 37 61 68 67 43 72 63 63 65 80
29 31 32 32 34 38 45 47 45 47 46 45 42 48 60 75 58 61 64 60 56 60
33 32 33 36 36 36 41 44 45 47 45 46 47 49 54 64 62 61 68 61 60 59